OBJECT B

Satellite information

Favourite Embed

Satellite Type and Status

UNKNOWNIN ORBIT

Key statistics

Satellite OBJECT B at a glance.

Uptime

592

Days in orbit

Revolutions

≈ 15.4

Per day

Orbit

SSO

Sun Synchronous Orbit

Inclination

97.5

Latest

Satellite identification and parameters

Extended collection of information and parameters for OBJECT B.

Object identification

Identified? True

Debris? False

Object name: OBJECT B

International designator: 2024-016B

Object number (NORAD): 58821

Object ID (CCSDS): 58821

Country: PEOPLES REPUBLIC OF CHINA (PRC)

Current information (Y/N): Y

RCS size: MEDIUM

Orbital parameters

Period: 93.628 minutes

Inclination: 97.4678 deg

SMA: 6830.155 km

Apoapsis: 457.419 km

Periapsis: 446.622 km

RAAN: 330.1002 deg

Eccentricy: 0.0007904

Argument of periapsis: 21.5186 deg

Mean anomaly: 338.6389 deg

Mean motion: 15.38001993 rev/day

Mean motion (dot): 0.00033379 rev/day2

B* drag term: 0.0008914603 1/REarth

Two-line elements (TLE)

Creation date: Sept. 6, 2025, 2:09 a.m.

Reference frame: TEME

Reference center: EARTH

Epoch: Sept. 5, 2025, 10:50 p.m. UTC

TLE line 0: 0 OBJECT B

TLE line 1: 1 58821U 24016B 25248.95197479 .00033379 00000-0 89146-3 0 9995

TLE line 2: 2 58821 97.4678 330.1002 0007904 21.5186 338.6389 15.38001993 90074

Live tracking on map

Real-time ground track for satellite OBJECT B.

In-orbit conjunctions

There are no conjunctions computed for OBJECT B, at the moment. Check back to stay up to date, as we update our databases every day.

Go to all conjunctions

Associated space launch

Carries 5 Earth and spatial observation satellites manufactured by MINOSPACE; details TBD: * Taijing-1-03 * Taijing-2-02 * Taijing-2-04 * Taijing-3-02 * Taijing-4-03

OBJECT B was lifted into orbit during the mission ‘Kinetica 1 | Flight 3’, on board a Kinetica 1 space rocket.

The launch took place on Jan. 23, 2024, 4:03 a.m. from Launch Area 130.

For more information about the launch, click the button.

Launch to space Kinetica 1 | Flight 3
Kinetica 1 | Flight 3

Agency: N/A

Status: Launch Successful

Launch date: Jan. 23, 2024, 4:03 a.m. UTC

Rocket: Kinetica 1

Launch pad: Launch Area 130

Location: Jiuquan Satellite Launch Center, People's Republic of China

...

Latest news about this satellite

There are no fresh news available about this satellite. Check back as we update our databases every day.


Newsletter sign-up

Weekly statistics, charts and insights to help you stay on top of the space industry.